T 2005 Mar. 14.3163 TT MPC q 4.444624 (2000.0) P Q n 0.0507609 Peri. 170.3033 -0.9957078 -0.0922941 a 7.224095 Node 4.4188 +0.0777586 -0.8747437 e 0.384750 Incl. 5.1515 +0.0501963 -0.4757155 P 19.4 >From 58 observations 2005 Mar. 3-May 9.
m1 = 10.5 + 5 logΔ + 10.0 log r